sat.trackr.live / text

‹ back to catalog

STARLINK-30297

NORAD 57682 · 2023-124V

PAYLOAD ACTIVE UNKNOWN

§ Identity

Operator
Country
US
Launch date
2023-08-22
Launch site
AFWTR
Launch vehicle
Mass (kg)
RCS (m²)

Purposes: comms

External: N2YO · Heavens-Above · Gunter

§ Orbital elements

Epoch: 2026-05-24T21:35:01.535712Z

Period
94.11 min
Inclination
53.1603°
Eccentricity
0.0001583
Mean motion
15.30199572 rev/d
Perigee alt
474.1 km
Apogee alt
476.3 km
Semi-major
6,853.4 km
B*
6.5199e-5
RAAN
213.0283°
Arg perigee
91.8051°
Mean anomaly
268.3131°
Rev number
15,523

§ Raw data

STARLINK-302971 57682U 23124V   26144.89932333  .00001572  00000+0  65199-4 0  99952 57682  53.1603 213.0283 0001583  91.8051 268.3131 15.30199572155230

JSON: /api/v1/satellites/57682 · /tle

For live sub-satellite position, see the globe view (requires WebGL).

§ Visibility from observer

Set your observer location to see the next 7 days of passes ≥ 10°. The values pass through the URL so the page stays shareable.

No JS? Fill the form by hand. The geolocation button needs JavaScript.